Regional Weather Roundup
Issued by NWS

Home | Current Version | Previous Version | Graphics & Text | Print | Product List | Glossary Off
Versions: 1 2 3 4 5 6 7 8 9 10 11 12 13 14 15 16 17 18 19 20 21 22 23 24 25 26 27 28 29 30 31 32 33 34 35 36 37 38 39 40 41 42 43 44 45 46 47 48 49 50

000
ASUS45 KPSR 251810
RWRAZ

ARIZONA HOURLY REGIONAL WEATHER ROUNDUP
NATIONAL WEATHER SERVICE PHOENIX AZ
1100 AM MST WED APR 25 2018

NOTE: FAIR INDICATES FEW OR NO CLOUDS BELOW 12,000 FEET WITH NO
SIGNIFICANT WEATHER AND/OR OBSTRUCTIONS TO VISIBILITY.

AZZ001>003-036-251900-
NORTHWEST ARIZONA

CITY           SKY/WX    TMP DP  RH WIND       PRES   REMARKS
BULLHEAD CITY  SUNNY     90  19   7 N17       29.95S
KINGMAN        SUNNY     85  24  11 N6        30.10F
6HR MIN TEMP:  52; 6HR MAX TEMP:  85;

$$

AZZ004>008-015-016-018-251900-
NORTH CENTRAL ARIZONA

CITY           SKY/WX    TMP DP  RH WIND       PRES   REMARKS
GRAND CANYON   SUNNY     67  17  14 NE12      30.30F
6HR MIN TEMP:  51; 6HR MAX TEMP:  67;

WILLIAMS       SUNNY     70  16  12 NE8       30.26F
PRESCOTT       SUNNY     76  20  12 VRB5      30.19F
6HR MIN TEMP:  46; 6HR MAX TEMP:  77;

FLAGSTAFF      SUNNY     63  19  18 NE7       30.31F
6HR MIN TEMP:  49; 6HR MAX TEMP:  64;

PAYSON         SUNNY     75  18  11 VRB6      30.19S
PAGE           SUNNY     68  18  14 VRB5      30.24F
6HR MIN TEMP:  57; 6HR MAX TEMP:  68;

$$

AZZ009>014-017-251900-
NORTHEAST ARIZONA

CITY           SKY/WX    TMP DP  RH WIND       PRES   REMARKS
WINSLOW        SUNNY     71  18  13 NW6       30.23F
6HR MIN TEMP:  47; 6HR MAX TEMP:  72;

SAINT JOHNS    SUNNY     69  18  14 CALM      30.21F
6HR MIN TEMP:  40; 6HR MAX TEMP:  70;

WINDOW ROCK    SUNNY     71  12  10 VRB3      30.25F
6HR MIN TEMP:  33; 6HR MAX TEMP:  71;

SHOW LOW       SUNNY     68  18  14 CALM      30.28S
$$

AZZ540-542>544-546-548-251900-
GREATER PHOENIX AREA

CITY           SKY/WX    TMP DP  RH WIND       PRES   REMARKS
PHOENIX        PTSUNNY   88  27  11 N3        29.96S
6HR MIN TEMP:  69; 6HR MAX TEMP:  89;

BUCKEYE        SUNNY     84  32  15 SE5       29.98S
GLENDALE       MOSUNNY   88  28  11 CALM      29.99S
LUKE AFB       SUNNY     87  28  12 E5        29.96F
6HR MIN TEMP:  64; 6HR MAX TEMP:  87;

DEER VALLEY    SUNNY     86  24  10 SW5       29.98F
6HR MIN TEMP:  64; 6HR MAX TEMP:  86;

SCOTTSDALE     SUNNY     87  31  13 CALM      30.00S
6HR MIN TEMP:  66; 6HR MAX TEMP:  87;

MESA-FALCON    PTSUNNY   88  30  12 SW7       29.99F
MESA-GATEWAY   MOSUNNY   88  30  12 SW5       30.00F
CHANDLER       SUNNY     88  28  11 E6        29.98F
$$

AZZ539-553-251900-
SOUTHWEST MARICOPA COUNTY AND PINAL COUNTY

CITY           SKY/WX    TMP DP  RH WIND       PRES   REMARKS
CASA GRANDE    SUNNY     86  30  13 VRB5      30.00F
6HR MIN TEMP:  61; 6HR MAX TEMP:  87;

GILA BEND      MOSUNNY   90  26  10 W5        29.96S
6HR MIN TEMP:  65; 6HR MAX TEMP:  90;

$$

AZZ503-504-507>509-251900-
SOUTHEAST ARIZONA

CITY           SKY/WX    TMP DP  RH WIND       PRES   REMARKS
TUCSON         SUNNY     86  20   9 E3        30.06F
6HR MIN TEMP:  58; 6HR MAX TEMP:  86;

DAVIS-MONTHAN  SUNNY     88  22   9 CALM      30.05
6HR MIN TEMP:  58; 6HR MAX TEMP:  88;

RYAN FIELD     SUNNY     86  23  10 E6        30.06S
NOGALES        SUNNY     85  10   6 MISG      30.12F
6HR MIN TEMP:  58; 6HR MAX TEMP:  85;

SIERRA VISTA   SUNNY     79  20  11 S7        30.17F
6HR MIN TEMP:  58; 6HR MAX TEMP:  80;

DOUGLAS        SUNNY    N/A N/A N/A MISG      30.13F
SAFFORD        SUNNY     85  17   8 W6        30.05F
6HR MIN TEMP:  55; 6HR MAX TEMP:  86;

$$

AZZ532-251900-
SOUTHWEST ARIZONA

CITY           SKY/WX    TMP DP  RH WIND       PRES   REMARKS
YUMA           MOSUNNY   87  35  15 W6        29.95S
6HR MIN TEMP:  66; 6HR MAX TEMP:  87;

$$

CAZ041-043-047-048-061-525>527-560>570-251900-
SOUTHERN CALIFORNIA

CITY           SKY/WX    TMP DP  RH WIND       PRES   REMARKS
DOWNTOWN L.A.  SUNNY     67  53  61 VRB3      30.08R
6HR MIN TEMP:  56; 6HR MAX TEMP:  69;

L.A. AIRPORT   PTSUNNY   61  51  70 W12       30.10R
6HR MIN TEMP:  56; 6HR MAX TEMP:  62;

SAN DIEGO      MOSUNNY   65  52  62 NW8       30.12R
6HR MIN TEMP:  56; 6HR MAX TEMP:  65;

BURBANK        SUNNY     68  50  52 VRB5      30.07S
6HR MIN TEMP:  53; 6HR MAX TEMP:  68;

ONTARIO        MOSUNNY   72  45  37 W7        30.06S
6HR MIN TEMP:  51; 6HR MAX TEMP:  72;

RIVERSIDE      SUNNY     72  44  36 W5        30.05F
6HR MIN TEMP:  51; 6HR MAX TEMP:  73;

PALM SPRINGS   SUNNY     93  24   8 VRB3      29.94S
6HR MIN TEMP:  66; 6HR MAX TEMP:  93;

EL CENTRO NAS  MOSUNNY   92  14   5 CALM      29.93F
6HR MIN TEMP:  67; 6HR MAX TEMP:  92;

IMPERIAL       SUNNY     91  23   8 NW6       29.92S
6HR MIN TEMP:  65; 6HR MAX TEMP:  91;

BLYTHE         SUNNY     90  37  15 NE7       29.94S
6HR MIN TEMP:  65; 6HR MAX TEMP:  90;

NEEDLES        SUNNY     93  20   7 N12       29.97F
6HR MIN TEMP:  71; 6HR MAX TEMP:  93;

$$

NVZ020-UTZ003-251900-
SOUTHERN NEVADA-UTAH

CITY           SKY/WX    TMP DP  RH WIND       PRES   REMARKS
LAS VEGAS      MOSUNNY   83  22  10 NE10      30.06F
6HR MIN TEMP:  71; 6HR MAX TEMP:  83;

SALT LAKE CITY MOSUNNY   65  25  22 S10       30.22F
6HR MIN TEMP:  49; 6HR MAX TEMP:  65;

$$

NMZ009-TXZ055-251900-
NEW MEXICO-WEST TEXAS

CITY           SKY/WX    TMP DP  RH WIND       PRES   REMARKS
ALBUQUERQUE    MOSUNNY   59  34  39 VRB6      30.28F
6HR MIN TEMP:  45; 6HR MAX TEMP:  59;

EL PASO        PTSUNNY   65  40  39 E12       30.23F
6HR MIN TEMP:  53; 6HR MAX TEMP:  65;

$$


........................KEY........................
SKY/WX - SKY CONDITION/WEATHER
TMP    - TEMPERATURE IN FAHRENHEIT
DP     - DEW POINT IN FAHRENHEIT
RH     - RELATIVE HUMIDITY IN PERCENT
WIND   - DIRECTION AND SPEED IN MILES PER HOUR (MPH)
VRB    - VARIABLE WIND DIRECTION
PRES   - MEAN SEA LEVEL PRESSURE IN INCHES OF MERCURY
         F - FALLING PRESSURE   R - RISING PRESSURE
         S - STEADY PRESSURE
VSB    - VISIBILITY IN MILES
HX     - HEAT INDEX IN FAHRENHEIT
WCI    - WIND CHILL INDEX IN FAHRENHEIT
TC     - TEMPERATURE IN CELSIUS WHICH IS ALSO KNOWN AS
         TEMPERATURE IN CENTIGRADE
AFB    - AIR FORCE BASE
         LUKE AFB IS LUKE AIR FORCE BASE
         DAVIS-MONTHAN IS DAVIS-MONTHAN AIR FORCE BASE
NAS    - NAVAL AIR STATION
         EL CENTRO NAS IS EL CENTRO NAVAL AIR STATION
N/A    - NOT AVAILABLE




USA.gov is the U.S. government's official web portal to all federal, state and local government web resources and services.